This is the latest recevied weather packets stored in our database for station/object WX9WTF. If no packets are shown the sender has not sent any weather packets the latest 1 day(s).
| Time | Temp. | Humidity | Pressure | Rain* | Wind** | Luminosity | Snow |
|---|---|---|---|---|---|---|---|
| 1778044685 | 8.89° C | 82% | 1016.1 hPa | 0 mm | - | 0 W/m² | - |
| 1778044381 | 8.89° C | 83% | 1015.8 hPa | 0 mm | - | 0 W/m² | - |
| 1778044079 | 8.89° C | 88% | 1015.5 hPa | 0 mm | - | 0 W/m² | - |
| 1778043472 | 8.89° C | 95% | 1015.6 hPa | 0 mm | - | 0 W/m² | - |
| 1778043170 | 8.89° C | 95% | 1015.6 hPa | 0.51 mm | - | 0 W/m² | - |
| 1778042867 | 8.33° C | 96% | 1015.1 hPa | 0.51 mm | - | 0 W/m² | - |
| 1778042261 | 8.33° C | 99% | 1015 hPa | 0 mm | - | 0 W/m² | - |
| 1778041958 | 8.33° C | 99% | 1014.9 hPa | 0 mm | - | 0 W/m² | - |
| 1778041657 | 8.33° C | 99% | 1015.1 hPa | 0 mm | - | 0 W/m² | - |
| 1778041356 | 8.33° C | 99% | 1015 hPa | 0 mm | - | 0 W/m² | - |
| 1778040750 | 8.33° C | 99% | 1014.7 hPa | 0 mm | - | 0 W/m² | - |
| 1778040447 | 8.33° C | 99% | 1014.8 hPa | 0 mm | - | 0 W/m² | - |
| 1778040144 | 8.33° C | 99% | 1014.7 hPa | 0 mm | - | 0 W/m² | - |
| 1778039841 | 8.33° C | 99% | 1014.8 hPa | 0 mm | - | 0 W/m² | - |
| 1778039538 | 8.33° C | 99% | 1015.1 hPa | 0 mm | - | 0 W/m² | - |
| 1778039234 | 8.33° C | 99% | 1014.8 hPa | 0 mm | - | 0 W/m² | - |
| 1778038932 | 8.33° C | 99% | 1014.7 hPa | 0 mm | - | 0 W/m² | - |
| 1778038327 | 7.78° C | 99% | 1014.4 hPa | 0 mm | - | 0 W/m² | - |
| 1778038023 | 7.78° C | 99% | 1014.4 hPa | 0 mm | - | 0 W/m² | - |
| 1778037721 | 7.78° C | 99% | 1014.4 hPa | 0 mm | - | 0 W/m² | - |
| 1778037417 | 7.78° C | 99% | 1014.3 hPa | 0 mm | - | 0 W/m² | - |
| 1778037114 | 7.78° C | 99% | 1014.4 hPa | 0 mm | - | 0 W/m² | - |
| 1778036813 | 7.78° C | 99% | 1014.2 hPa | 0 mm | - | 0 W/m² | - |
| 1778036206 | 7.78° C | 99% | 1014.1 hPa | 0 mm | - | 0 W/m² | - |
| 1778035902 | 7.78° C | 98% | 1014.1 hPa | 0 mm | - | 0 W/m² | - |
* Rain latest hour (hover to see other rain measurements)
** Current wind speed in m/s (hover to see current wind gust speed)